K8JCL-13 Weather Reports


time (UTC)temp
C
wind
direction
speed
KPH
gust
KPH
rain 1hr
cm
rain 24hr
cm
rain mn
cm
humidity
%
barometer
mb
20260504215315 21 71 0.0 0.0 0.00 0.00 0.00 60 1005.9
20260504214811 21 203 0.0 1.6 0.00 0.00 0.00 59 1006.2
20260504214308 21 296 3.2 3.2 0.00 0.00 0.00 59 1006.6
20260504213805 21 49 0.0 1.6 0.00 0.00 0.00 60 1006.8
20260504213301 22 256 4.8 8.0 0.00 0.00 0.00 59 1006.7
20260504212758 22 114 1.6 3.2 0.00 0.00 0.00 60 1006.6
20260504212254 21 3 0.0 1.6 0.00 0.00 0.00 62 1006.7
20260504211752 21 60 0.0 0.0 0.00 0.00 0.00 61 1006.7
20260504211248 21 57 0.0 1.6 0.00 0.00 0.00 64 1006.7
20260504210746 21 61 0.0 1.6 0.00 0.00 0.00 64 1006.9
20260504210243 21 2 0.0 0.0 0.00 0.00 0.00 67 1006.9
20260504205739 21 247 1.6 3.2 0.00 0.00 0.00 66 1007.0
20260504205238 20 258 4.8 4.8 0.00 0.00 0.00 64 1006.8
20260504204735 20 52 0.0 0.0 0.00 0.00 0.00 67 1006.4
20260504204233 20 39 0.0 0.0 0.00 0.00 0.00 68 1007.2
20260504203732 20 135 3.2 3.2 0.00 0.00 0.00 68 1007.4
20260504203224 20 142 3.2 3.2 0.00 0.00 0.00 66 1007.7
20260504202724 20 254 1.6 3.2 0.00 0.00 0.00 67 1007.9
20260504202221 20 83 0.0 1.6 0.00 0.00 0.00 69 1008.0
20260504201718 20 337 1.6 3.2 0.00 0.00 0.00 68 1008.0
20260504201215 20 292 1.6 1.6 0.00 0.00 0.00 69 1008.1
20260504200713 20 323 0.0 1.6 0.00 0.00 0.00 67 1007.9
20260504200209 20 42 0.0 0.0 0.00 0.00 0.00 67 1007.7
20260504195705 20 345 0.0 1.6 0.00 0.00 0.00 68 1007.7
20260504195201 20 334 0.0 0.0 0.00 0.00 0.00 67 1007.8
20260504194658 20 292 4.8 8.0 0.00 0.00 0.00 67 1007.7
20260504194148 20 58 0.0 0.0 0.00 0.00 0.00 67 1007.5
20260504193645 20 93 3.2 3.2 0.00 0.00 0.00 68 1007.6
20260504193143 20 9 0.0 1.6 0.00 0.00 0.00 67 1008.1
20260504192641 19 147 0.0 1.6 0.00 0.00 0.00 70 1008.1
20260504192139 20 71 1.6 3.2 0.00 0.00 0.00 71 1008.3
20260504191637 19 328 0.0 1.6 0.00 0.00 0.00 69 1008.6
20260504191133 19 336 1.6 3.2 0.00 0.00 0.00 68 1008.9
20260504190629 20 289 4.8 8.0 0.00 0.00 0.00 66 1008.6
20260504190126 20 72 1.6 1.6 0.00 0.00 0.00 69 1009.0
20260504185622 20 79 1.6 3.2 0.00 0.00 0.00 66 1009.0
20260504185119 21 295 1.6 1.6 0.00 0.00 0.00 64 1008.9
20260504184615 21 159 1.6 3.2 0.00 0.00 0.00 66 1008.4
20260504184110 21 100 3.2 3.2 0.00 0.00 0.00 63 1008.5
20260504183607 21 354 0.0 1.6 0.00 0.00 0.00 65 1008.5
20260504183105 21 257 3.2 3.2 0.00 0.00 0.00 62 1008.0
20260504182602 21 80 0.0 1.6 0.00 0.00 0.00 62 1007.9
20260504182100 21 245 3.2 4.8 0.00 0.00 0.00 60 1008.2
20260504181556 22 280 3.2 4.8 0.00 0.00 0.00 63 1008.3
20260504181054 22 61 3.2 3.2 0.00 0.00 0.00 59 1007.9
20260504180553 22 69 0.0 1.6 0.00 0.00 0.00 61 1008.0
20260504180052 21 24 1.6 1.6 0.00 0.00 0.00 63 1007.9
20260504175549 22 295 1.6 1.6 0.00 0.00 0.00 60 1007.6
20260504175045 22 273 3.2 3.2 0.00 0.00 0.00 58 1007.9
20260504174543 21 353 1.6 1.6 0.00 0.00 0.00 66 1007.9
20260504174040 21 328 0.0 1.6 0.00 0.00 0.00 62 1007.8
20260504173537 22 157 3.2 4.8 0.00 0.00 0.00 62 1007.7
20260504173034 22 354 1.6 3.2 0.00 0.00 0.00 61 1008.0
20260504172530 22 63 0.0 0.0 0.00 0.00 0.00 61 1007.9
20260504172027 21 116 1.6 3.2 0.00 0.00 0.00 62 1007.9
20260504171524 21 140 1.6 3.2 0.00 0.00 0.00 65 1008.3
20260504171021 21 337 4.8 9.7 0.00 0.00 0.00 58 1008.1
20260504170516 20 278 1.6 3.2 0.00 0.00 0.00 61 1007.9
20260504160437 20 73 3.2 3.2 0.00 0.00 0.00 61 1008.3
20260504150901 20 201 1.6 1.6 0.00 0.00 0.00 64 1009.0
20260504150358 19 272 1.6 1.6 0.00 0.00 0.00 65 1008.9
20260504141327 17 113 1.6 3.2 0.00 0.00 0.00 66 1009.3
20260504140824 16 59 0.0 1.6 0.00 0.00 0.00 69 1009.3
20260504140319 16 127 1.6 3.2 0.00 0.00 0.00 67 1009.3
20260504130748 15 85 0.0 0.0 0.00 0.00 0.00 70 1009.4
20260504130244 15 61 0.0 1.6 0.00 0.00 0.00 69 1009.7
20260504120208 11 61 1.6 1.6 0.00 0.00 0.00 73 1009.3
20260504110636 10 4 0.0 1.6 0.00 0.00 0.00 75 1009.3
20260504110132 10 60 0.0 0.0 0.00 0.00 0.00 76 1009.2
20260504100552 9 20 0.0 0.0 0.00 0.00 0.00 77 1009.8
20260504081945 9 20 0.0 0.0 0.00 0.00 0.00 75 1010.4
20260504081442 9 354 0.0 0.0 0.00 0.00 0.00 75 1010.5
20260504080938 10 288 0.0 0.0 0.00 0.00 0.00 73 1010.1
20260504080435 10 352 0.0 0.0 0.00 0.00 0.00 73 1010.4
20260504070403 10 1 0.0 0.0 0.00 0.00 0.00 71 1010.6
20260504050750 10 57 0.0 0.0 0.00 0.00 0.00 70 1012.0
20260504050247 10 108 0.0 1.6 0.00 0.00 0.00 70 1012.1
20260504045744 11 7 0.0 0.0 0.00 0.00 0.00 68 1011.9
20260504045239 11 330 1.6 3.2 0.00 0.00 0.00 67 1012.0
20260504044737 11 44 0.0 0.0 0.00 0.00 0.00 67 1012.1
20260504044234 11 352 0.0 0.0 0.00 0.00 0.00 68 1012.2
20260504043731 11 33 0.0 0.0 0.00 0.00 0.00 67 1012.3
20260504043228 11 42 0.0 0.0 0.00 0.00 0.00 65 1012.1
20260504042726 11 59 1.6 3.2 0.00 0.00 0.00 65 1012.2
20260504042222 12 0 0.0 0.0 0.00 0.00 0.00 64 1012.4
20260504041718 12 33 1.6 1.6 0.00 0.00 0.00 63 1012.3
20260504041215 12 230 1.6 1.6 0.00 0.00 0.00 64 1012.5
20260504040711 12 147 1.6 3.2 0.00 0.00 0.00 64 1012.6
20260504040208 12 108 0.0 1.6 0.00 0.00 0.00 64 1012.4
20260504035704 12 24 0.0 0.0 0.00 0.03 0.03 64 1012.6
20260504035202 12 25 0.0 0.0 0.00 0.03 0.03 65 1012.5
20260504034659 12 58 0.0 0.0 0.00 0.03 0.03 64 1012.5
20260504034156 11 356 0.0 0.0 0.00 0.03 0.03 65 1012.8
20260504033654 12 50 0.0 0.0 0.00 0.03 0.03 65 1012.6
20260504033151 12 32 0.0 0.0 0.00 0.03 0.03 64 1012.6
20260504032647 12 15 0.0 0.0 0.00 0.03 0.03 65 1012.7
20260504032145 11 23 0.0 1.6 0.00 0.03 0.03 64 1012.7
20260504031642 11 18 0.0 0.0 0.00 0.03 0.03 66 1012.6
20260504031138 11 20 0.0 0.0 0.00 0.03 0.03 66 1012.7
20260504030635 11 55 0.0 0.0 0.00 0.03 0.03 64 1012.9
20260504030132 11 126 1.6 3.2 0.00 0.03 0.03 66 1013.1
20260504025628 11 17 0.0 0.0 0.00 0.03 0.03 65 1013.1
20260504025125 11 5 0.0 0.0 0.00 0.03 0.03 67 1013.2
20260504024623 11 19 0.0 0.0 0.00 0.03 0.03 67 1013.3
20260504024119 11 8 0.0 0.0 0.00 0.03 0.03 67 1013.1
20260504023616 11 13 0.0 0.0 0.00 0.03 0.03 67 1013.2
20260504023112 11 355 0.0 0.0 0.00 0.03 0.03 68 1013.3
20260504022608 11 9 0.0 0.0 0.00 0.03 0.03 68 1013.2
20260504022104 10 2 0.0 0.0 0.00 0.03 0.03 71 1013.1
20260504021602 11 359 0.0 0.0 0.00 0.03 0.03 76 1013.3
20260504021059 10 10 0.0 0.0 0.00 0.03 0.03 76 1013.3
20260504020555 10 346 0.0 0.0 0.00 0.03 0.03 78 1013.3
20260504020052 10 5 0.0 0.0 0.00 0.03 0.03 78 1013.4
20260504015548 10 10 0.0 0.0 0.00 0.03 0.03 77 1013.2
20260504015044 10 6 0.0 0.0 0.00 0.03 0.03 76 1013.3
20260504014541 10 3 0.0 0.0 0.00 0.03 0.03 79 1013.2
20260504014038 10 356 0.0 0.0 0.00 0.03 0.03 77 1012.9
20260504013536 10 357 0.0 0.0 0.00 0.03 0.03 77 1013.1
20260504013032 10 6 0.0 0.0 0.00 0.03 0.03 75 1013.2
20260504012529 10 13 0.0 0.0 0.00 0.03 0.03 77 1012.8
20260504012022 10 345 0.0 0.0 0.00 0.03 0.03 77 1012.9
20260504011518 10 5 0.0 0.0 0.00 0.03 0.03 78 1012.7
20260504011014 10 10 0.0 0.0 0.00 0.03 0.03 77 1013.1
20260504010510 10 18 0.0 0.0 0.00 0.03 0.03 77 1013.2
20260504010006 10 77 1.6 1.6 0.00 0.03 0.03 76 1013.2
20260504005503 10 74 0.0 1.6 0.00 0.03 0.03 76 1012.9
20260504005001 10 45 0.0 0.0 0.00 0.03 0.03 76 1013.1
20260504004458 10 66 0.0 0.0 0.00 0.03 0.03 77 1013.5
20260504003955 10 15 0.0 0.0 0.00 0.03 0.03 76 1013.2
20260504003451 10 107 4.8 4.8 0.00 0.03 0.03 75 1013.3
20260504002948 10 108 4.8 4.8 0.00 0.03 0.03 76 1012.8
20260504002445 10 36 0.0 0.0 0.00 0.03 0.03 75 1013.2
20260504001942 10 49 0.0 0.0 0.00 0.03 0.03 77 1012.9
20260504001440 10 96 1.6 1.6 0.00 0.03 0.03 75 1012.9
20260504000936 10 23 0.0 0.0 0.00 0.03 0.03 77 1013.2
20260504000433 10 17 0.0 0.0 0.00 0.03 0.03 75 1013.2
20260503235930 10 53 0.0 0.0 0.00 0.03 0.03 74 1012.9
20260503235428 10 109 0.0 1.6 0.00 0.03 0.03 72 1013.2
20260503234925 11 43 0.0 0.0 0.00 0.03 0.03 73 1012.9
20260503234423 11 93 3.2 3.2 0.00 0.03 0.03 72 1012.8
20260503233921 11 98 3.2 3.2 0.00 0.03 0.03 71 1012.7
20260503233417 11 65 1.6 3.2 0.00 0.03 0.03 71 1012.8
20260503232913 11 95 0.0 1.6 0.00 0.03 0.03 71 1013.1
20260503232411 11 259 3.2 4.8 0.00 0.03 0.03 72 1012.9
20260503231908 11 122 6.4 9.7 0.00 0.03 0.03 72 1013.2
20260503231406 11 16 4.8 8.0 0.00 0.03 0.03 72 1013.1
20260503230902 11 124 6.4 8.0 0.00 0.03 0.03 72 1013.4
20260503230358 11 150 3.2 3.2 0.00 0.03 0.03 73 1013.8
20260503225856 11 124 3.2 3.2 0.00 0.03 0.03 74 1013.9
20260503225352 11 133 3.2 4.8 0.00 0.03 0.03 74 1013.8
20260503224848 10 130 4.8 8.0 0.00 0.03 0.03 74 1014.1
20260503224346 10 117 6.4 8.0 0.00 0.03 0.03 74 1014.1
20260503223843 10 148 4.8 4.8 0.00 0.03 0.03 75 1014.2
20260503223341 10 115 4.8 4.8 0.00 0.03 0.03 77 1014.3
20260503222836 10 344 0.0 1.6 0.00 0.03 0.03 77 1014.3
20260503222335 10 128 1.6 1.6 0.00 0.03 0.03 78 1014.6
20260503221832 10 90 0.0 0.0 0.00 0.03 0.03 80 1014.8
20260503221331 10 62 1.6 1.6 0.00 0.03 0.03 79 1014.7
20260503220827 10 9 1.6 3.2 0.00 0.03 0.03 78 1015.0
20260503220324 10 10 1.6 3.2 0.00 0.03 0.03 79 1014.8
20260503215820 10 30 0.0 0.0 0.00 0.03 0.03 78 1014.8